Estación Meteorológica Peña el Pijo (Robertgarden) [ 09/29/20 11:45:05 CEST ]

Fecha Hora Presion(HPa) Temp (°C) Humedad % Rocio (°C) Viento ( m/s) Direccion Lluvia 1Hora(mm) Lluvia 24H(mm) LLuvia Total(mm)
2020-Jan-08 01:08:58 1017.400 - - - - NNE     39.88
2020-Jan-08 02:11:04 1017.200 - - - - NNE     39.88
2020-Jan-08 03:09:18 1017.000 - - - - NNE     39.88
2020-Jan-08 04:09:09 1016.700 - - - - NNE     39.88
2020-Jan-08 05:09:24 1016.700 - - - - NNE     39.88
2020-Jan-08 06:09:12 1016.900 - - - - NNE     39.88
2020-Jan-08 07:09:14 1016.700 - - - - NNE     39.88
2020-Jan-08 08:09:05 1016.700 - - - - NNE     39.88
2020-Jan-08 09:09:22 1016.900 - - - - NNE     39.88
2020-Jan-08 10:08:38 1017.300 - - - - NNE     39.88
2020-Jan-08 11:09:03 1017.200 - - - - NNE     39.88
2020-Jan-08 12:09:13 1016.800 - - - - NNE     39.88
2020-Jan-08 13:09:12 1015.700 - - - - NNE     39.88
2020-Jan-08 14:09:26 1015.200 - - - - NNE     39.88
2020-Jan-08 15:09:08 1015.100 - - - - NNE     39.88
2020-Jan-08 16:09:23 1015.200 - - - - NNE     39.88
2020-Jan-08 17:09:55 1015.600 - - - - NNE     39.88
2020-Jan-08 18:09:21 1016.100 - - - - NNE     39.88
2020-Jan-08 19:09:09 1016.700 - - - - NNE     39.88
2020-Jan-08 20:09:31 1016.800 - - - - NNE     39.88
2020-Jan-08 21:09:12 1017.000 - - - - NNE     39.88
2020-Jan-08 22:09:18 1017.200 - - - - NNE     39.88
2020-Jan-08 23:09:08 1017.200 - - - - NNE     39.88

Temperatura Máxima:    Temperatura Mínima:
Presión Máxima:1017.400 Hpa    Presión Mínima:1015.100 Hpa


Volver